| Temperature (°F) | Max | Average | Min |
|---|---|---|---|
| Max Temperature | 92 | 79.39 | 69 |
| Avg Temperature | 83.63 | 71.35 | 61.88 |
| Min Temperature | 74 | 62.97 | 56 |
| Precipitation (in) | Max | Average | Min | Sum |
|---|---|---|---|---|
| Precipitation | 0 | 0 | 0 | 0 |
| Dew Point (°F) | Max | Average | Min |
|---|---|---|---|
| Dew Point | 59.14 | 52.02 | 41.88 |
| Wind (mph) | Max | Average | Min |
|---|---|---|---|
| Wind | 20 | 10.77 | 4 |
| Gust Wind | - | - | - |
| Sea Level Pressure (in) | Max | Average | Min |
|---|---|---|---|
| Sea Level Pressure | 29.56 | 29.4 | 29.12 |
| Date | Temp High/Low | Dew Pt High/Low | Humidity | Wind | Max Wind | Wind Gust | Pressure | Precip. | Condition |
|---|---|---|---|---|---|---|---|---|---|
| 6/1/2022 | 81 °F / 62 °F | 60 °F / 55 °F | 61 % | 7 mph | - | 29.44 in | 0 in | ||
| 6/2/2022 | 86 °F / 66 °F | 60 °F / 53 °F | 55 % | 7 mph | - | 29.45 in | 0 in | ||
| 6/3/2022 | 79 °F / 63 °F | 59 °F / 48 °F | 58 % | 18 mph | - | 29.54 in | 0 in | ||
| 6/4/2022 | 81 °F / 60 °F | 49 °F / 44 °F | 42 % | 7 mph | - | 29.56 in | 0 in | ||
| 6/5/2022 | 73 °F / 65 °F | 58 °F / 45 °F | 57 % | 7 mph | - | 29.39 in | 0 in | ||
| 6/6/2022 | 72 °F / 59 °F | 55 °F / 49 °F | 61 % | 7 mph | - | 29.48 in | 0 in | ||
| 6/7/2022 | 79 °F / 61 °F | 49 °F / 45 °F | 43 % | 7 mph | - | 29.43 in | 0 in | ||
| 6/8/2022 | 80 °F / 61 °F | 51 °F / 46 °F | 44 % | 7 mph | - | 29.34 in | 0 in | ||
| 6/9/2022 | 83 °F / 64 °F | 53 °F / 48 °F | 45 % | 13 mph | - | 29.27 in | 0 in | ||
| 6/10/2022 | 73 °F / 63 °F | 60 °F / 53 °F | 70 % | 7 mph | - | 29.34 in | 0 in | ||
| 6/11/2022 | 80 °F / 61 °F | 62 °F / 55 °F | 76 % | 7 mph | - | 29.36 in | 0 in | ||
| 6/12/2022 | 84 °F / 65 °F | 59 °F / 51 °F | 59 % | 13 mph | - | 29.33 in | 0 in | ||
| 6/13/2022 | 84 °F / 67 °F | 59 °F / 53 °F | 53 % | 11 mph | - | 29.33 in | 0 in | ||
| 6/14/2022 | 74 °F / 67 °F | 56 °F / 41 °F | 50 % | 16 mph | - | 29.35 in | 0 in | ||
| 6/15/2022 | 73 °F / 58 °F | 44 °F / 41 °F | 42 % | 11 mph | - | 29.55 in | 0 in | ||
| 6/16/2022 | 75 °F / 60 °F | 47 °F / 42 °F | 44 % | 7 mph | - | 29.56 in | 0 in | ||
| 6/17/2022 | 82 °F / 61 °F | 55 °F / 49 °F | 53 % | 20 mph | - | 29.44 in | 0 in | ||
| 6/18/2022 | 75 °F / 58 °F | 55 °F / 46 °F | 57 % | 13 mph | - | 29.49 in | 0 in | ||
| 6/19/2022 | 81 °F / 59 °F | 47 °F / 41 °F | 41 % | 4 mph | - | 29.52 in | 0 in | ||
| 6/20/2022 | 84 °F / 63 °F | 55 °F / 44 °F | 43 % | 13 mph | - | 29.36 in | 0 in | ||
| 6/21/2022 | 86 °F / 63 °F | 59 °F / 46 °F | 49 % | 18 mph | - | 29.13 in | 0 in | ||
| 6/22/2022 | 70 °F / 56 °F | 49 °F / 39 °F | 50 % | 20 mph | - | 29.16 in | 0 in | ||
| 6/23/2022 | 72 °F / 58 °F | 56 °F / 45 °F | 60 % | 16 mph | - | 29.24 in | 0 in | ||
| 6/24/2022 | 78 °F / 62 °F | 57 °F / 50 °F | 59 % | 16 mph | - | 29.32 in | 0 in | ||
| 6/25/2022 | 78 °F / 63 °F | 57 °F / 52 °F | 59 % | 7 mph | - | 29.36 in | 0 in | ||
| 6/26/2022 | 76 °F / 64 °F | 59 °F / 54 °F | 62 % | 7 mph | - | 29.43 in | 0 in | ||
| 6/27/2022 | 86 °F / 65 °F | 59 °F / 50 °F | 53 % | 9 mph | - | 29.47 in | 0 in | ||
| 6/28/2022 | 89 °F / 71 °F | 55 °F / 46 °F | 39 % | 9 mph | - | 29.47 in | 0 in | ||
| 6/29/2022 | 92 °F / 74 °F | 61 °F / 48 °F | 38 % | 9 mph | - | 29.44 in | 0 in | ||
| 6/30/2022 | 86 °F / 71 °F | 61 °F / 54 °F | 50 % | 11 mph | - | 29.42 in | 0 in |